WMT411 LATI-LFLL

Flight info

Callsign WMT411
Flight time N/A
Altitude 36000
Route DIRES2W/35 DIRES DCT PAPIZ DCT VIE DCT TOP/N0388F240 DCT RONOP DCT GIGUS/N0406F270 Z40 AMVAR
Aircraft A321/M-SDE1E2E3FGIJ1J4RWXY/LB1

Departure

Time N/A
Airport Tirana International Airport Mother Teresa (LATI)

Arrival

Time 2026-05-03 21:09
Airport Lyon Saint-Exupéry Airport (LFLL)
Time Latitude Longitude Altitude Speed Heading
2026-05-03 20:15 44.48203 9.23197 36156 ft 432 kts 292°
2026-05-03 20:15 44.50730 9.15562 36156 ft 432 kts 292°
2026-05-03 20:16 44.53256 9.07920 36174 ft 432 kts 292°
2026-05-03 20:16 44.55775 9.00277 36166 ft 432 kts 292°
2026-05-03 20:17 44.58287 8.92636 36160 ft 431 kts 291°
2026-05-03 20:17 44.60794 8.84990 36157 ft 431 kts 291°
2026-05-03 20:18 44.63291 8.77338 36154 ft 431 kts 291°
2026-05-03 20:18 44.65788 8.69675 36173 ft 431 kts 291°
2026-05-03 20:19 44.68281 8.62013 36163 ft 431 kts 291°
2026-05-03 20:19 44.70765 8.54344 36157 ft 431 kts 291°
2026-05-03 20:20 44.73249 8.46675 36152 ft 431 kts 291°
2026-05-03 20:20 44.75731 8.38996 36150 ft 431 kts 291°
2026-05-03 20:21 44.78185 8.31350 36153 ft 431 kts 290°
2026-05-03 20:21 44.80653 8.23650 36133 ft 432 kts 290°
2026-05-03 20:22 44.83116 8.15938 36140 ft 432 kts 290°
2026-05-03 20:22 44.85576 8.08218 36132 ft 432 kts 290°
2026-05-03 20:23 44.88028 8.00490 36134 ft 432 kts 290°
2026-05-03 20:23 44.90476 7.92746 36133 ft 432 kts 290°
2026-05-03 20:24 44.92929 7.85008 36146 ft 433 kts 291°
2026-05-03 20:24 44.95654 7.77413 36146 ft 435 kts 294°
2026-05-03 20:25 44.98553 7.69915 36142 ft 435 kts 294°
2026-05-03 20:25 45.01418 7.62392 36158 ft 435 kts 294°
2026-05-03 20:26 45.04231 7.54805 36141 ft 436 kts 293°
2026-05-03 20:26 45.07026 7.47196 36181 ft 436 kts 293°
2026-05-03 20:27 45.09825 7.39579 36185 ft 436 kts 293°
2026-05-03 20:27 45.12621 7.31949 36184 ft 437 kts 293°
2026-05-03 20:28 45.15416 7.24305 36183 ft 437 kts 293°
2026-05-03 20:28 45.18211 7.16653 36185 ft 437 kts 293°
2026-05-03 20:29 45.20573 7.08769 36171 ft 434 kts 288°
2026-05-03 20:29 45.22860 7.00832 36176 ft 435 kts 288°
2026-05-03 20:30 45.25146 6.92874 36179 ft 435 kts 288°
2026-05-03 20:30 45.27408 6.84971 36163 ft 435 kts 288°
2026-05-03 20:31 45.29680 6.77007 36138 ft 435 kts 288°
2026-05-03 20:31 45.31951 6.69030 36143 ft 436 kts 288°
2026-05-03 20:32 45.34224 6.61023 36114 ft 436 kts 288°
2026-05-03 20:32 45.36482 6.53015 36126 ft 437 kts 288°
2026-05-03 20:33 45.38467 6.44901 36093 ft 431 kts 275°
2026-05-03 20:33 45.38555 6.40675 36091 ft 425 kts 261°
2026-05-03 20:33 45.38098 6.36530 36090 ft 425 kts 258°
2026-05-03 20:34 45.37122 6.28232 36078 ft 425 kts 259°
2026-05-03 20:34 45.36156 6.19930 36081 ft 425 kts 259°
2026-05-03 20:35 45.35183 6.11618 36083 ft 426 kts 258°
2026-05-03 20:35 45.34200 6.03296 36071 ft 427 kts 258°
2026-05-03 20:36 45.33210 5.95021 36074 ft 428 kts 258°
2026-05-03 20:36 45.32184 5.86704 36067 ft 428 kts 258°
2026-05-03 20:37 45.31136 5.78373 36092 ft 428 kts 258°
2026-05-03 20:37 45.30115 5.70046 36074 ft 428 kts 258°
2026-05-03 20:38 45.29089 5.61711 36093 ft 428 kts 258°
2026-05-03 20:38 45.28067 5.53379 36098 ft 428 kts 258°
2026-05-03 20:39 45.27039 5.45052 36105 ft 428 kts 258°
2026-05-03 20:39 45.26017 5.36721 36124 ft 429 kts 258°
2026-05-03 20:40 45.25010 5.28385 36103 ft 428 kts 258°
2026-05-03 20:40 45.24000 5.20059 36099 ft 428 kts 258°
2026-05-03 20:41 45.22987 5.11726 36090 ft 429 kts 258°
2026-05-03 20:41 45.21973 5.03390 36086 ft 429 kts 258°
2026-05-03 20:42 45.20971 4.95052 36085 ft 429 kts 258°
2026-05-03 20:42 45.19982 4.86718 36082 ft 429 kts 258°
2026-05-03 20:43 45.18997 4.78440 36079 ft 428 kts 258°
2026-05-03 20:43 45.18011 4.70114 36079 ft 428 kts 258°
2026-05-03 20:44 45.17018 4.61786 36079 ft 428 kts 258°
2026-05-03 20:44 45.16039 4.53462 36088 ft 428 kts 258°
2026-05-03 20:45 45.15108 4.45516 36045 ft 420 kts 258°
2026-05-03 20:45 45.14640 4.41493 36012 ft 408 kts 258°
2026-05-03 20:45 45.14185 4.37561 35992 ft 403 kts 258°
2026-05-03 20:46 45.13285 4.29762 35934 ft 401 kts 258°
2026-05-03 20:46 45.12386 4.21980 35909 ft 401 kts 257°
2026-05-03 20:47 45.11494 4.14178 35846 ft 402 kts 257°
2026-05-03 20:47 45.10270 4.06539 35801 ft 395 kts 241°
2026-05-03 20:47 45.08708 4.03374 35642 ft 395 kts 225°
2026-05-03 20:48 45.06504 4.01044 35064 ft 398 kts 208°
2026-05-03 20:48 45.03864 3.99866 34527 ft 402 kts 190°
2026-05-03 20:48 45.01049 3.99966 33991 ft 411 kts 173°
2026-05-03 20:48 44.98343 4.01356 33386 ft 421 kts 155°
2026-05-03 20:49 44.96015 4.03930 32796 ft 433 kts 137°
2026-05-03 20:49 44.94302 4.07465 32217 ft 443 kts 121°
2026-05-03 20:49 44.93062 4.11450 31649 ft 444 kts 118°
2026-05-03 20:49 44.91878 4.15463 31100 ft 442 kts 117°
2026-05-03 20:50 44.90697 4.19458 30530 ft 440 kts 117°
2026-05-03 20:50 44.89522 4.23369 29992 ft 437 kts 117°
2026-05-03 20:50 44.88324 4.27299 29365 ft 435 kts 117°
2026-05-03 20:50 44.87295 4.31312 28757 ft 438 kts 106°
2026-05-03 20:51 44.87008 4.35593 28168 ft 441 kts 90°
2026-05-03 20:51 44.87582 4.39837 27614 ft 444 kts 72°
2026-05-03 20:51 44.88979 4.43701 27073 ft 443 kts 58°
2026-05-03 20:51 44.90643 4.47334 26542 ft 440 kts 58°
2026-05-03 20:52 44.92298 4.50950 26022 ft 438 kts 58°
2026-05-03 20:52 44.93944 4.54556 25507 ft 436 kts 58°
2026-05-03 20:52 44.95581 4.58153 24976 ft 435 kts 59°
2026-05-03 20:52 44.97211 4.61748 24478 ft 435 kts 59°
2026-05-03 20:53 44.98834 4.65345 23983 ft 434 kts 59°
2026-05-03 20:53 45.00460 4.68936 23478 ft 433 kts 57°
2026-05-03 20:53 45.02433 4.72138 22904 ft 434 kts 40°
2026-05-03 20:53 45.04951 4.74464 22345 ft 432 kts 23°
2026-05-03 20:54 45.07761 4.75915 21795 ft 430 kts 17°
2026-05-03 20:54 45.13361 4.78548 21191 ft 416 kts 17°
2026-05-03 20:54 45.16093 4.79827 20818 ft 411 kts 17°
2026-05-03 20:55 45.18798 4.81098 20375 ft 408 kts 17°
2026-05-03 20:55 45.21480 4.82363 19970 ft 404 kts 18°
2026-05-03 20:55 45.24142 4.83622 19547 ft 401 kts 18°
2026-05-03 20:55 45.26777 4.84872 19128 ft 398 kts 18°
2026-05-03 20:56 45.29378 4.86107 18491 ft 390 kts 18°
2026-05-03 20:56 45.31946 4.87324 17576 ft 387 kts 18°
2026-05-03 20:56 45.34488 4.88532 16769 ft 382 kts 18°
2026-05-03 20:56 45.36989 4.89723 15842 ft 376 kts 18°
2026-05-03 20:57 45.39450 4.90898 14951 ft 370 kts 18°
2026-05-03 20:57 45.41850 4.92047 14465 ft 367 kts 18°
2026-05-03 20:57 45.44245 4.93195 14103 ft 363 kts 18°
2026-05-03 20:57 45.46647 4.94346 13618 ft 361 kts 18°
2026-05-03 20:58 45.49019 4.95483 13210 ft 357 kts 18°
2026-05-03 20:58 45.51361 4.96606 12736 ft 355 kts 18°
2026-05-03 20:58 45.53697 4.97668 12319 ft 351 kts 13°
2026-05-03 20:58 45.56101 4.98102 11890 ft 346 kts 359°
2026-05-03 20:59 45.58486 4.97849 11490 ft 342 kts 353°
2026-05-03 20:59 45.60846 4.97503 11088 ft 339 kts 353°
2026-05-03 20:59 45.63187 4.97167 10700 ft 337 kts 353°
2026-05-03 20:59 45.65509 4.96839 10318 ft 334 kts 353°
2026-05-03 21:00 45.67798 4.96520 10075 ft 327 kts 354°
2026-05-03 21:00 45.68563 4.96414 10033 ft 323 kts 354°
2026-05-03 21:00 45.72189 4.95907 9696 ft 310 kts 353°
2026-05-03 21:00 45.74337 4.95599 9281 ft 310 kts 353°
2026-05-03 21:01 45.76467 4.95292 8723 ft 306 kts 353°
2026-05-03 21:01 45.78581 4.94988 7951 ft 305 kts 353°
2026-05-03 21:01 45.80689 4.94683 7237 ft 303 kts 353°
2026-05-03 21:01 45.82776 4.94385 6694 ft 300 kts 353°
2026-05-03 21:02 45.84851 4.94112 6150 ft 300 kts 358°
2026-05-03 21:02 45.86929 4.94381 5614 ft 301 kts 14°
2026-05-03 21:02 45.88911 4.95305 5068 ft 299 kts 22°
2026-05-03 21:02 45.90653 4.96680 4915 ft 274 kts 45°
2026-05-03 21:03 45.91852 4.98653 4857 ft 252 kts 66°
2026-05-03 21:03 45.92335 5.00125 4793 ft 242 kts 80°
2026-05-03 21:03 45.92628 5.02436 4676 ft 231 kts 95°
2026-05-03 21:03 45.92573 5.04697 4551 ft 219 kts 118°
2026-05-03 21:04 45.91756 5.06392 4107 ft 204 kts 154°
2026-05-03 21:04 45.90416 5.07019 3581 ft 201 kts 176°
2026-05-03 21:04 45.89106 5.07255 3705 ft 185 kts 176°
2026-05-03 21:04 45.87848 5.07437 3575 ft 179 kts 178°
2026-05-03 21:05 45.86641 5.07584 3401 ft 169 kts 178°
2026-05-03 21:05 45.85495 5.07724 3173 ft 161 kts 177°
2026-05-03 21:05 45.84404 5.07857 2964 ft 153 kts 178°
2026-05-03 21:05 45.83364 5.07984 2764 ft 146 kts 178°
2026-05-03 21:06 45.82383 5.08104 2572 ft 137 kts 178°
2026-05-03 21:06 45.81467 5.08216 2430 ft 128 kts 177°
2026-05-03 21:06 45.80595 5.08322 2241 ft 124 kts 177°
2026-05-03 21:06 45.79744 5.08426 2068 ft 121 kts 178°
2026-05-03 21:07 45.78900 5.08528 1908 ft 122 kts 178°
2026-05-03 21:07 45.78046 5.08632 1738 ft 125 kts 176°
2026-05-03 21:07 45.77160 5.08740 1556 ft 131 kts 176°
2026-05-03 21:07 45.76244 5.08857 1377 ft 135 kts 174°
2026-05-03 21:08 45.75302 5.08990 1227 ft 137 kts 173°
2026-05-03 21:08 45.74348 5.09081 994 ft 137 kts 173°
2026-05-03 21:08 45.73399 5.09201 788 ft 139 kts 173°
2026-05-03 21:08 45.72570 5.09298 782 ft 96 kts 175°
2026-05-03 21:09 45.72066 5.09367 789 ft 55 kts 175°
2026-05-03 21:09 45.71855 5.09358 792 ft 24 kts 188°
2026-05-03 21:09 45.71707 5.09297 795 ft 20 kts 204°
2026-05-03 21:09 45.71639 5.09216 797 ft 12 kts 243°
2026-05-03 21:10 45.71629 5.09109 799 ft 10 kts 267°
2026-05-03 21:10 45.71626 5.09010 800 ft 10 kts 266°
2026-05-03 21:10 45.71619 5.08911 800 ft 11 kts 264°
2026-05-03 21:10 45.71613 5.08793 799 ft 14 kts 274°
2026-05-03 21:11 45.71691 5.08711 798 ft 16 kts 352°
2026-05-03 21:11 45.71807 5.08698 797 ft 17 kts 355°
2026-05-03 21:11 45.71925 5.08662 796 ft 18 kts 319°
2026-05-03 21:11 45.71942 5.08504 795 ft 14 kts 267°
2026-05-03 21:12 45.71955 5.08369 794 ft 12 kts 284°
2026-05-03 21:12 45.71995 5.08274 793 ft 12 kts 329°
2026-05-03 21:12 45.72089 5.08279 792 ft 12 kts 19°
2026-05-03 21:12 45.72140 5.08251 792 ft 8 kts 291°
2026-05-03 21:13 45.72144 5.08201 791 ft 2 kts 273°
2026-05-03 21:13 45.72144 5.08195 791 ft 0 kts 272°